Yatton Keynell, United Kingdom

2:13 AM BST on April 25, 2019 (GMT +0100)
Yatton Keynell

Weather History for 03740 - August, 2006

Change the Weather History Date:

Tuesday, August 15, 2006

  Actual Average Record
Temperature  
Mean Temperature 59 °F -  
Max Temperature 65 °F 66 °F - ()
Min Temperature 53 °F 51 °F - ()
Degree Days  
Heating Degree Days 6    
Growing Degree Days 9 (Base 50)    
Moisture  
Dew Point 51 °F    
Average Humidity 72    
Maximum Humidity 88    
Minimum Humidity 51    
Precipitation  
Precipitation 0.00 in 0.08 in - ()
Sea Level Pressure  
Sea Level Pressure 29.76 in    
Wind  
Wind Speed 6 mph ()    
Max Wind Speed 13 mph    
Max Gust Speed -    
Visibility 8.4 miles    
Events      
T = Trace of Precipitation, MM = Missing Value Source: Averaged Metar Reports

Daily Weather History Graph

Daily Weather History Graph

Search for Another Location

Airport or City:

Astronomy

Aug. 15, 2006 Rise Set
Actual Time 5:53 AM BST 8:30 PM BST
Civil Twilight 5:15 AM BST 9:08 PM BST
Nautical Twilight 4:27 AM BST 9:56 PM BST
Astronomical Twilight 3:28 AM BST 10:53 PM BST
Moon 10:38 PM BST (8/15) 2:11 PM BST (8/15)
Length of Visible Light 15h 52m
Length of Day
14h 37m
Waning Gibbous, 57% of the Moon is Illuminated
Aug 15
Waning Gibbous
Aug 16
Last Quarter
Aug 23
New
Aug 31
First Quarter
Sep 7
Full

Hourly Weather History & Observations

Time (BST) Temp. Dew Point Humidity Pressure Visibility Wind Dir Wind Speed Gust Speed Precip Events Conditions
12:50 AM 59 °F 54 °F 79% 29.91 in 16 mi WNW 5.8 mph - -   Partly Cloudy
12:50 AM 59.0 °F 53.6 °F 82% 29.89 in 6.2 mi WNW 5.8 mph - N/A   Mostly Cloudy
1:50 AM 57.2 °F 53.6 °F 88% 29.89 in 6.2 mi SW 3.5 mph - N/A   Scattered Clouds
2:50 AM 57.2 °F 51.8 °F 82% 29.89 in 6.2 mi WNW 6.9 mph - N/A   Mostly Cloudy
3:50 AM 56 °F 50 °F 75% 29.88 in 16 mi WNW 5.8 mph - -   Mostly Cloudy
3:50 AM 57.2 °F 50.0 °F 77% 29.86 in 6.2 mi WNW 5.8 mph - N/A   Mostly Cloudy
4:50 AM 55.4 °F 50.0 °F 82% 29.86 in 6.2 mi WNW 5.8 mph - N/A   Mostly Cloudy
5:50 AM 55.4 °F 50.0 °F 82% 29.83 in 6.2 mi WSW 4.6 mph - N/A   Mostly Cloudy
6:50 AM 54 °F 50 °F 82% 29.85 in 14 mi WSW 5.8 mph - -   Mostly Cloudy
6:50 AM 53.6 °F 50.0 °F 88% 29.83 in 6.2 mi WSW 5.8 mph - N/A   Mostly Cloudy
7:50 AM 55.4 °F 50.0 °F 82% 29.83 in 6.2 mi SW 5.8 mph - N/A   Mostly Cloudy
8:50 AM 57.2 °F 50.0 °F 77% 29.83 in 6.2 mi WSW 5.8 mph - N/A   Mostly Cloudy
9:50 AM 59 °F 48 °F 58% 29.81 in 19 mi SSW 4.6 mph - -   Mostly Cloudy
9:50 AM 59.0 °F 48.2 °F 67% 29.80 in 6.2 mi SSW 4.6 mph - N/A   Mostly Cloudy
10:50 AM 62.6 °F 50.0 °F 63% 29.77 in 6.2 mi WSW 11.5 mph - N/A   Mostly Cloudy
11:50 AM 60.8 °F 51.8 °F 72% 29.77 in 6.2 mi SW 8.1 mph - N/A   Mostly Cloudy
12:50 PM 63 °F 49 °F 51% 29.75 in 22 mi WSW 11.5 mph - -   Partly Cloudy
12:50 PM 62.6 °F 50.0 °F 63% 29.74 in 6.2 mi WSW 11.5 mph - N/A   Mostly Cloudy
1:50 PM 64.4 °F 50.0 °F 59% 29.74 in 6.2 mi West 12.7 mph - N/A   Mostly Cloudy
2:50 PM 64.4 °F 50.0 °F 59% 29.71 in 6.2 mi WSW 10.4 mph - N/A   Mostly Cloudy
3:50 PM 64 °F 51 °F 53% 29.70 in 25 mi SSW 8.1 mph - -   Mostly Cloudy
3:50 PM 64.4 °F 51.8 °F 64% 29.71 in 6.2 mi SSW 8.1 mph - N/A   Mostly Cloudy
4:50 PM 64.4 °F 50.0 °F 59% 29.68 in 6.2 mi SW 9.2 mph - N/A   Mostly Cloudy
5:50 PM 62.6 °F 51.8 °F 68% 29.65 in 6.2 mi SW 8.1 mph - N/A   Mostly Cloudy
6:50 PM 62 °F 51 °F 57% 29.66 in 19 mi SW 9.2 mph - -   Overcast
6:50 PM 62.6 °F 50.0 °F 63% 29.65 in 6.2 mi SW 9.2 mph - N/A   Overcast
7:50 PM 60.8 °F 51.8 °F 72% 29.65 in 6.2 mi SSW 6.9 mph - N/A   Mostly Cloudy
8:50 PM 59.0 °F 51.8 °F 77% 29.65 in 6.2 mi South 8.1 mph - N/A   Mostly Cloudy
9:50 PM 56 °F 51 °F 80% 29.67 in 19 mi South 4.6 mph - -   Partly Cloudy
9:50 PM 57.2 °F 51.8 °F 82% 29.65 in 6.2 mi South 4.6 mph - N/A   Mostly Cloudy
10:50 PM 55.4 °F 51.8 °F 88% 29.65 in 6.2 mi South 4.6 mph - N/A   Mostly Cloudy
11:50 PM 55.4 °F 51.8 °F 88% 29.65 in 6.2 mi SSE 6.9 mph - N/A   Mostly Cloudy